Simultaneous Nadir Overpasses (SNOs) Predictions

Prediction of SNOs between GOES-16 and NOAA-19 Satellite Orbit:

Table of predicted SNOs for the next 14.0 days since TLE Epoch: 11/7/2020
Index Date Time (GOES-16) GOES-16 Lat,Lon NOAA-19 Lat,Lon Distance(km) Time Diff (sec)
1 11/07/2020 23:18:35 0.02, -75.17 0.09, -74.89 32.63 80
2 11/08/2020 23:06:53 0.02, -75.18 0.75, -72.03 359.81 80
3 11/11/2020 11:27:42 -0.02, -75.22 0.39, -76.95 197.40 80
4 11/12/2020 11:13:21 -0.02, -75.23 -0.31, -74.10 130.07 80
5 11/13/2020 11:01:38 -0.02, -75.24 -0.95, -71.24 457.57 80
6 11/14/2020 23:34:23 0.02, -75.23 -0.88, -79.07 437.60 80
7 11/15/2020 23:22:40 0.01, -75.25 -0.21, -76.21 109.63 80
8 11/16/2020 23:13:38 0.01, -75.26 0.45, -73.35 218.43 80
9 11/19/2020 11:34:30 -0.00, -75.33 0.68, -78.28 337.08 80
10 11/20/2020 11:22:47 0.00, -75.34 0.04, -75.42 8.99 80
